• In Uzbekistan
  • List of Countries
  • For 7 days
  • Water Temperature
  • Satellite Maps
  • Weather Map
  • Weather Widgets
  • user-avatar
    Login

    Hourly Weather Shusha

    Today, 2 December, Friday

    Time Temperature Precipitation Wind Pressure Humidity
    00:00 +2°C° 0 mm 1 mps 653 mmHg 91%
    01:00 +2°C° 0 mm 1 mps 653 mmHg 91%
    02:00 +1°C° 0 mm 1 mps 652 mmHg 91%
    03:00 +1°C° 0 mm 1 mps 652 mmHg 91%
    04:00 +1°C° 0 mm 1 mps 651 mmHg 91%
    05:00 +1°C° 0 mm 1 mps 651 mmHg 91%
    06:00 +1°C° 0 mm 1 mps 651 mmHg 90%
    07:00 +2°C° 0.1 mm 1 mps 651 mmHg 86%
    08:00 +3°C° 0.1 mm 1 mps 651 mmHg 83%
    09:00 +4°C° 0 mm 1 mps 650 mmHg 80%
    10:00 +4°C° 0.4 mm 2 mps 650 mmHg 78%
    11:00 +5°C° 0.4 mm 2 mps 650 mmHg 76%
    12:00 +5°C° 0.4 mm 2 mps 650 mmHg 74%
    13:00 +6°C° 0 mm 2 mps 649 mmHg 74%
    14:00 +6°C° 0 mm 2 mps 649 mmHg 73%
    15:00 +6°C° 0 mm 2 mps 649 mmHg 75%
    16:00 +4°C° 0 mm 2 mps 649 mmHg 79%
    17:00 +4°C° 0 mm 1 mps 649 mmHg 84%
    18:00 +3°C° 0 mm 1 mps 649 mmHg 88%
    19:00 +2°C° 0 mm 1 mps 649 mmHg 87%
    20:00 +2°C° 0 mm 1 mps 650 mmHg 86%
    21:00 +2°C° 0 mm 1 mps 650 mmHg 86%
    22:00 +1°C° 0.1 mm 2 mps 650 mmHg 84%
    23:00 +1°C° 0.1 mm 2 mps 650 mmHg 83%

    Tomorrow, 3 December, Saturday

    Time Temperature Precipitation Wind Pressure Humidity
    00:00 +1°C° 0.1 mm 2 mps 651 mmHg 82%
    01:00 +1°C° 0.4 mm 2 mps 651 mmHg 81%
    02:00 +2°C° 0.4 mm 2 mps 652 mmHg 80%
    03:00 +2°C° 0.4 mm 2 mps 652 mmHg 79%
    04:00 +1°C° 0.1 mm 2 mps 652 mmHg 80%
    05:00 -1°C° 0.1 mm 2 mps 653 mmHg 80%
    06:00 -1°C° 0.1 mm 2 mps 653 mmHg 81%
    07:00 +1°C° 0 mm 2 mps 654 mmHg 75%
    08:00 +2°C° 0 mm 2 mps 655 mmHg 69%
    09:00 +3°C° 0 mm 2 mps 655 mmHg 63%
    10:00 +3°C° 0 mm 3 mps 656 mmHg 57%
    11:00 +5°C° 0 mm 3 mps 657 mmHg 51%
    12:00 +6°C° 0 mm 4 mps 657 mmHg 45%
    13:00 +6°C° 0 mm 4 mps 657 mmHg 46%
    14:00 +5°C° 0 mm 3 mps 658 mmHg 46%
    15:00 +5°C° 0 mm 3 mps 658 mmHg 47%
    16:00 +4°C° 0 mm 3 mps 658 mmHg 51%
    17:00 +2°C° 0 mm 3 mps 659 mmHg 56%
    18:00 +1°C° 0 mm 2 mps 659 mmHg 60%
    19:00 +1°C° 0 mm 2 mps 660 mmHg 59%
    20:00 +1°C° 0 mm 2 mps 660 mmHg 58%
    21:00 0°C° 0 mm 3 mps 661 mmHg 57%
    22:00 -1°C° 0 mm 2 mps 661 mmHg 60%
    23:00 -1°C° 0 mm 2 mps 662 mmHg 62%

    Day after tomorrow, 4 December, Sunday

    Time Temperature Precipitation Wind Pressure Humidity
    00:00 -2°C° 0 mm 2 mps 662 mmHg 64%
    01:00 -2°C° 0 mm 2 mps 662 mmHg 66%
    02:00 -3°C° 0 mm 2 mps 663 mmHg 67%
    03:00 -1°C° 0 mm 1 mps 663 mmHg 69%
    04:00 -1°C° 0 mm 1 mps 663 mmHg 70%
    05:00 -1°C° 0 mm 1 mps 663 mmHg 71%
    06:00 -2°C° 0 mm 1 mps 663 mmHg 73%
    07:00 0°C° 0 mm 1 mps 663 mmHg 66%
    08:00 +1°C° 0 mm 1 mps 664 mmHg 59%
    09:00 +2°C° 0 mm 2 mps 665 mmHg 52%
    10:00 +3°C° 0 mm 2 mps 664 mmHg 49%
    11:00 +4°C° 0 mm 2 mps 664 mmHg 45%
    12:00 +6°C° 0 mm 2 mps 664 mmHg 41%
    13:00 +5°C° 0 mm 2 mps 663 mmHg 43%
    14:00 +5°C° 0 mm 2 mps 663 mmHg 45%
    15:00 +5°C° 0 mm 2 mps 662 mmHg 47%
    16:00 +3°C° 0 mm 2 mps 662 mmHg 53%
    17:00 +2°C° 0 mm 1 mps 662 mmHg 60%
    18:00 +1°C° 0 mm 1 mps 661 mmHg 67%
    19:00 0°C° 0 mm 1 mps 661 mmHg 67%
    20:00 0°C° 0 mm 1 mps 661 mmHg 67%
    21:00 0°C° 0 mm 1 mps 661 mmHg 67%
    22:00 0°C° 0 mm 1 mps 661 mmHg 68%
    23:00 0°C° 0 mm 1 mps 661 mmHg 69%

    5 December, Monday

    Time Temperature Precipitation Wind Pressure Humidity
    00:00 0°C° 0 mm 1 mps 661 mmHg 70%
    01:00 0°C° 0 mm 1 mps 661 mmHg 71%
    02:00 -1°C° 0 mm 1 mps 661 mmHg 73%
    03:00 -1°C° 0 mm 1 mps 661 mmHg 74%
    04:00 -1°C° 0 mm 1 mps 661 mmHg 74%
    05:00 -1°C° 0 mm 1 mps 661 mmHg 74%
    06:00 -1°C° 0 mm 1 mps 661 mmHg 74%
    07:00 0°C° 0 mm 1 mps 662 mmHg 68%
    08:00 +1°C° 0 mm 1 mps 662 mmHg 62%
    09:00 +3°C° 0 mm 1 mps 663 mmHg 56%
    10:00 +2°C° 0 mm 2 mps 663 mmHg 54%
    11:00 +3°C° 0 mm 2 mps 662 mmHg 52%
    12:00 +3°C° 0 mm 2 mps 662 mmHg 50%
    13:00 +3°C° 0.1 mm 2 mps 662 mmHg 53%
    14:00 +2°C° 0.1 mm 2 mps 661 mmHg 55%
    15:00 +2°C° 0.1 mm 2 mps 661 mmHg 58%
    16:00 +1°C° 0.1 mm 2 mps 661 mmHg 64%
    17:00 +1°C° 0.1 mm 1 mps 661 mmHg 69%
    18:00 0°C° 0.1 mm 1 mps 661 mmHg 75%
    19:00 0°C° 0.2 mm 1 mps 661 mmHg 77%
    20:00 -1°C° 0.2 mm 1 mps 662 mmHg 78%
    21:00 -1°C° 0.2 mm 1 mps 662 mmHg 79%
    22:00 -1°C° 0.4 mm 1 mps 662 mmHg 81%
    23:00 -1°C° 0.4 mm 1 mps 662 mmHg 82%

    6 December, Tuesday

    Time Temperature Precipitation Wind Pressure Humidity
    00:00 -1°C° 0.4 mm 1 mps 662 mmHg 83%
    01:00 -1°C° 0.6 mm 1 mps 662 mmHg 84%
    02:00 -3°C° 0.6 mm 2 mps 662 mmHg 86%
    03:00 -4°C° 0.6 mm 2 mps 663 mmHg 88%
    04:00 -4°C° 0.6 mm 2 mps 663 mmHg 88%
    05:00 -4°C° 0.6 mm 2 mps 663 mmHg 88%
    06:00 -2°C° 0.6 mm 1 mps 664 mmHg 88%
    07:00 -2°C° 0.3 mm 1 mps 664 mmHg 86%
    08:00 -4°C° 0.3 mm 2 mps 664 mmHg 84%
    09:00 -4°C° 0.3 mm 2 mps 665 mmHg 81%
    10:00 -3°C° 0.1 mm 2 mps 665 mmHg 76%
    11:00 -3°C° 0.1 mm 2 mps 665 mmHg 70%
    12:00 -2°C° 0.1 mm 2 mps 665 mmHg 65%
    13:00 0°C° 0 mm 1 mps 664 mmHg 66%
    14:00 0°C° 0 mm 1 mps 664 mmHg 67%
    15:00 0°C° 0 mm 1 mps 664 mmHg 68%
    16:00 -2°C° 0 mm 1 mps 663 mmHg 73%
    17:00 -4°C° 0 mm 1 mps 663 mmHg 78%
    18:00 -8°C° 0 mm 0 mps 662 mmHg 83%
    19:00 -7°C° 0 mm 1 mps 662 mmHg 82%
    20:00 -7°C° 0 mm 1 mps 662 mmHg 81%
    21:00 -7°C° 0 mm 1 mps 662 mmHg 80%
    22:00 -7°C° 0 mm 1 mps 662 mmHg 79%
    23:00 -8°C° 0 mm 2 mps 662 mmHg 78%

    7 December, Wednesday

    Time Temperature Precipitation Wind Pressure Humidity
    00:00 -8°C° 0 mm 2 mps 661 mmHg 77%
    01:00 -8°C° 0 mm 2 mps 661 mmHg 75%
    02:00 -8°C° 0 mm 2 mps 661 mmHg 74%
    03:00 -8°C° 0 mm 2 mps 661 mmHg 73%
    04:00 -7°C° 0 mm 2 mps 661 mmHg 73%
    05:00 -7°C° 0 mm 2 mps 660 mmHg 72%
    06:00 -7°C° 0 mm 2 mps 660 mmHg 71%
    07:00 -6°C° 0 mm 2 mps 661 mmHg 69%
    08:00 -4°C° 0 mm 2 mps 661 mmHg 67%
    09:00 -3°C° 0 mm 2 mps 662 mmHg 65%
    10:00 -1°C° 0 mm 2 mps 661 mmHg 62%
    11:00 +2°C° 0 mm 1 mps 661 mmHg 60%
    12:00 +4°C° 0 mm 1 mps 661 mmHg 58%
    13:00 +4°C° 0 mm 1 mps 661 mmHg 60%
    14:00 +3°C° 0 mm 1 mps 660 mmHg 63%
    15:00 +3°C° 0 mm 1 mps 660 mmHg 65%
    16:00 +1°C° 0 mm 1 mps 660 mmHg 68%
    17:00 -1°C° 0 mm 1 mps 659 mmHg 71%
    18:00 -5°C° 0 mm 2 mps 659 mmHg 74%
    19:00 -5°C° 0 mm 2 mps 659 mmHg 73%
    20:00 -5°C° 0 mm 2 mps 659 mmHg 71%
    21:00 -6°C° 0 mm 2 mps 659 mmHg 70%
    22:00 -6°C° 0 mm 2 mps 659 mmHg 70%
    23:00 -6°C° 0 mm 2 mps 659 mmHg 70%
    Show more